Location: Clermont
(50.2608°N, 4.3172°E)
Time: 05:09:44
(UTC+00:00)

SPOT 5 - Pass Details

Date: 13 August 2020
Orbit: 624 x 814 km, 98.3° (Epoch: 19 September)

Event Time Altitude Azimuth Distance (km) Brightness Sun altitude
Exits shadow 21:19:52 33° 168° (SSE) 1,051 3.2 -17.8°
Maximum altitude 21:21:46 85° 255° (WSW) 640 2.6 -18.0°
Drops below altitude 10° 21:26:14 10° 345° (NNW) 2,054 6.3 -18.4°
Sets 21:28:29 0° 346° (NNW) 2,990 7.3 -18.6°
